Regional Weather Roundup
Issued by NWS

Home | Current Version | Previous Version | Text Only | Print | Product List | Glossary Off
Versions: 1 2 3 4 5 6 7 8 9 10 11 12 13 14 15 16 17 18 19 20 21 22 23 24 25 26 27 28 29 30 31 32 33 34 35 36 37 38 39 40 41 42 43 44 45 46 47 48 49 50

000
ASUS43 KDMX 232206
RWRIA

WEATHER ROUNDUP FOR IOWA
NATIONAL WEATHER SERVICE DES MOINES IA
500 PM CDT TUE MAY 23 2017

NOTE: "FAIR" INDICATES FEW OR NO CLOUDS BELOW 12,000 FEET WITH NO
SIGNIFICANT WEATHER AND/OR OBSTRUCTIONS TO VISIBILITY.

* - THESE STATIONS ARE NOT NWS STATIONS...THUS NOT UNDER NWS
QUALITY CONTROL.  THEY ALSO DO NOT REPORT WEATHER SUCH
AS PRECIPITATION OR FOG.

IAZ001>003-012>014-020>022-031>034-043>046-232300-
   NORTHWEST IOWA

CITY           SKY/WX    TMP DP  RH WIND       PRES   REMARKS
CARROLL *      PTSUNNY   59  46  63 N17       29.79F
CHEROKEE *     PTSUNNY   53  50  89 N7        29.82S
DENISON *      PTSUNNY   55  48  76 N16G23    29.83S
LE MARS *      CLOUDY    57  48  72 N20G25    29.83F
ORANGE CITY *  PTSUNNY   57  46  67 N16       29.83S
SHELDON *      RAIN      50  46  87 N7G15       N/A
SIOUX CITY     PTSUNNY   59  48  67 N17       29.83F
SPENCER        CLOUDY    57  46  66 N16       29.80F
STORM LAKE *     N/A     57  45  62 N20G28    29.80F
$$

IAZ055>058-069>071-079>083-090>094-232300-
   SOUTHWEST IOWA

CITY           SKY/WX    TMP DP  RH WIND       PRES   REMARKS
ATLANTIC *     CLOUDY    55  48  76 NW14G21   29.81S
AUDUBON *      PTSUNNY   54  48  82 N9G16     29.81S
CLARINDA *     CLOUDY    61  45  55 NW13G20   29.83F
COUNCIL BLFS *   N/A     55  45  67 NW14G21   29.82S
CRESTON *      LGT RAIN  55  46  71 NW14      29.80F
HARLAN  *      PTSUNNY   57  48  72 N23       29.85S
LAMONI         PTSUNNY   59  45  59 NW12      29.78F
RED OAK *      CLOUDY    61  45  55 NW10G17   29.81F
SHENANDOAH *   CLOUDY    59  45  58 NW10G20   29.83S
$$

IAZ047>049-059>061-072>074-084-232300-
   CENTRAL IOWA

CITY           SKY/WX    TMP DP  RH WIND       PRES   REMARKS
AMES           PTSUNNY   60  49  66 N10       29.76F
ANKENY *       PTSUNNY   59  46  63 N10G18    29.77F
BOONE *        CLOUDY    57  48  72 N13       29.76F
CHARITON *     DRIZZLE   55  48  76 W10G16    29.76F
DES MOINES     PTSUNNY   61  44  53 NW12      29.76S
GRINNELL*      MOSUNNY   58  47  66 NW13      29.77S
KNOXVILLE *    CLOUDY    59  45  58 NW12      29.75S
MARSHALLTOWN   CLOUDY    60  47  61 NW12      29.74F
NEWTON *       CLOUDY    57  48  72 W10       29.75F
PELLA *        MOSUNNY   61  46  56 NW10      29.77S
PERRY *        CLOUDY    56  50  78 N8        29.77F
$$

IAZ004>006-015-016-023>025-035-036-232300-
   NORTH CENTRAL IOWA

CITY           SKY/WX    TMP DP  RH WIND       PRES   REMARKS
ALGONA *       PTSUNNY   55  48  76 N13       29.79S
CLARION *      CLOUDY    55  48  76 NW20      29.76S
ESTHERVILLE    CLOUDY    53  47  79 N21       29.79F
FORT DODGE *   PTSUNNY   52  45  76 N6        29.79S
MASON CITY     CLOUDY    54  48  80 N10       29.78F
FOREST CITY *  CLOUDY    54  45  71 N8        29.78S
WEBSTER CITY * PTSUNNY   57  46  67 NW14G20   29.74F
IOWA FALLS *   PTSUNNY   59  46  62 NW10      29.76S
$$

IAZ007>011-017>019-026>030-037>042-050>054-066-232300-
   NORTHEAST IOWA

CITY           SKY/WX    TMP DP  RH WIND       PRES   REMARKS
CEDAR RAPIDS   CLOUDY    56  49  77 NW13      29.73R
CHARLES CITY * CLOUDY    55  50  82 N12       29.75S
CLINTON *      PTSUNNY   61  52  72 N5        29.72S
DECORAH *      CLOUDY    55  50  82 N7        29.72S
DUBUQUE        CLOUDY    61  49  64 CALM      29.70F
MONTICELLO *   PTSUNNY   63  48  59 NW10      29.71R
OELWEIN *      LGT RAIN  54  50  87 NW9       29.74F
WATERLOO       CLOUDY    59  46  62 N7        29.73F
$$

IAZ064-065-067-068-078-232300-
   EAST CENTRAL IOWA

CITY           SKY/WX    TMP DP  RH WIND       PRES   REMARKS
DAVENPORT      MOSUNNY   64  49  57 W3        29.71F
IOWA CITY      CLOUDY    60  48  64 NW18      29.74R
MT. PLEASANT * LGT RAIN  58  49  72 W6        29.73S
MUSCATINE *    CLOUDY    61  50  67 W9        29.72S
QUAD CITIES    MOSUNNY   66  50  56 NW3       29.70F
$$

IAZ062-063-075>077-085>089-095>099-232300-
   SOUTHEAST IOWA

CITY           SKY/WX    TMP DP  RH WIND       PRES   REMARKS
BURLINGTON     CLOUDY    64  50  60 NW6       29.71F
FAIRFIELD *    CLOUDY    59  48  67 NW16      29.74S
FORT MADISON * PTSUNNY   64  52  63 NW13      29.73S
KEOKUK *       CLOUDY    64  50  59 W7        29.72S
OSKALOOSA *      N/A     59  46  62 N8        29.75F
CENTERVILLE *  PTSUNNY   59  45  58 NW10      29.77F
OTTUMWA        CLOUDY    62  47  57 NW10      29.75F
WASHINGTON *   PTSUNNY   59  52  77 NW12G21   29.75R
$$

ABBREVIATIONS USED IN REMARKS
   TC - TEMPERATURES IN CELSIUS
  WCI - WIND CHILL INDEX
   HX - HEAT INDEX
  VSB - VISIBILITY
$$





USA.gov is the U.S. government's official web portal to all federal, state and local government web resources and services.